Location: Casone le Fosse
(44.6547°N, 12.1103°E)
Time: 09:02:13
(UTC+00:00)

USA 215 - Pass Details

Date: 29 October 2020
Orbit: 1102 x 1106 km, 123.0° (Epoch: 23 November)

Event Time Altitude Azimuth Distance (km) Brightness Sun altitude
Exits shadow 18:10:08 30° 48° (NE) 1,866 4.1 -22.9°
Maximum altitude 18:12:02 36° 16° (NNE) 1,683 4.1 -23.2°
Drops below altitude 10° 18:17:51 10° 313° (NW) 2,966 6.2 -24.3°
Sets 18:20:32 0° 305° (NW) 3,925 7.1 -24.8°
